Theta_e
326 325 324 324 324 324 323 321 322 323 323 322 320 319 319 319 318 319 319 319 320 319 320 320 319 319 317 317 318 318 317 318 318 317 318 319 318 318 317 317 318 318
326 326 324 323 323 322 321 321 322 322 322 322 320 319 319 318 318 317 317 317 318 318 319 318 319 318 317 317 317 316 315 316 317 317 316 317 317 317 316 316 316 316
326 326 324 324 323 322 321 321 322 322 321 320 319 319 319 318 317 317 316 316 317 317 317 317 318 318 317 317 315 315 315 315 315 316 316 317 317 317 317 316 316 316
326 325 325 323 323 322 321 321 321 321 320 319 319 319 319 318 318 317 316 316 316 317 317 317 317 317 316 316 316 316 316 315 316 316 316 317 317 317 318 317 317 317
327 326 325 323 323 322 322 321 321 321 321 320 319 319 319 319 318 318 317 317 317 317 317 317 317 316 316 316 316 316 316 315 315 316 316 316 316 317 318 318 318 318
329 327 324 323 324 323 322 321 321 321 321 320 319 320 319 319 319 319 318 317 317 317 317 318 317 317 316 317 317 317 316 316 315 316 316 316 316 316 316 316 317 317
329 328 325 323 324 323 322 321 321 320 320 320 320 320 320 319 319 319 318 318 317 317 318 318 318 318 318 318 317 317 317 316 315 315 315 316 316 316 316 315 316 316
329 327 325 322 323 322 321 321 321 320 320 320 320 319 319 319 318 318 319 318 318 318 318 319 319 319 318 318 317 317 317 317 316 316 316 315 315 315 316 316 315 315
328 327 325 322 321 321 320 321 322 322 322 321 320 319 319 319 318 318 319 318 318 318 318 319 319 319 319 318 318 318 318 318 317 316 316 315 315 315 315 315 315 314
329 328 326 324 322 319 319 322 323 323 322 320 320 319 318 318 318 318 318 318 319 319 318 318 319 320 320 319 318 319 319 319 318 318 317 317 316 316 315 315 316 316
329 328 326 326 324 320 320 323 322 319 318 319 321 320 318 318 318 317 318 318 319 319 319 319 319 320 321 320 320 320 320 319 320 319 319 318 318 317 316 316 317 317
329 328 327 327 326 323 323 323 321 317 315 318 322 321 319 319 318 317 318 318 319 319 319 320 320 320 321 321 321 322 321 321 320 321 321 321 320 320 319 318 318 319
327 327 327 327 327 326 325 323 321 319 318 319 322 322 321 321 320 319 319 319 319 320 319 320 320 320 321 321 322 322 323 322 322 322 322 322 322 321 320 320 320 320
326 326 327 327 327 326 326 324 323 322 321 321 321 320 321 321 321 319 320 320 320 320 320 320 320 321 321 322 322 322 323 324 323 323 323 323 323 322 322 321 321 321
324 325 326 325 325 324 324 323 323 323 322 321 321 321 321 321 321 320 320 320 320 320 320 321 321 321 320 321 322 322 322 323 323 323 323 322 322 322 322 321 320 320
325 325 325 325 324 324 323 322 322 323 323 322 323 324 322 321 321 320 320 321 321 321 321 321 320 320 320 321 322 322 321 323 323 322 321 321 320 321 322 320 320 320
324 324 324 324 324 324 323 323 323 324 323 323 324 324 323 322 322 321 321 321 321 322 321 321 320 320 320 322 322 322 322 323 322 321 321 320 320 321 321 321 319 319
323 323 324 325 324 324 323 323 323 324 324 324 323 323 323 322 322 322 322 322 322 321 321 320 319 318 319 320 319 319 321 322 321 321 321 321 320 319 320 320 319 319
323 324 324 325 325 324 324 323 323 323 323 323 323 322 322 322 322 322 323 323 322 321 320 320 319 319 320 318 315 316 321 322 320 319 319 319 319 319 319 319 319 319
324 323 324 324 324 324 323 323 322 322 322 323 323 323 322 321 321 322 322 322 322 321 320 319 318 318 318 317 315 317 320 320 318 317 317 318 317 317 317 317 318 318
322 322 322 323 323 322 322 321 322 322 322 322 323 322 322 322 322 322 322 322 322 322 321 319 318 318 318 318 318 319 319 318 317 317 318 317 317 316 317 317 318 317
315 317 318 320 321 321 322 322 322 323 322 322 322 322 322 322 322 322 322 321 322 322 321 321 321 320 318 318 319 318 319 319 318 317 317 317 316 317 317 317 317 316
312 313 313 314 315 316 318 321 322 322 322 321 322 322 322 321 321 321 321 321 322 321 321 321 321 320 319 318 319 319 319 318 316 316 317 317 316 317 317 317 316 315
312 312 312 313 313 313 314 316 318 319 320 321 321 321 321 321 320 320 320 321 321 321 320 318 318 318 318 317 317 317 317 314 312 315 317 315 315 316 317 316 316 314
311 312 312 312 312 313 313 314 314 315 317 318 319 319 319 320 319 319 319 320 320 319 318 316 315 315 315 315 314 313 313 310 310 313 314 314 315 316 316 315 314 313
309 310 311 311 311 311 312 312 313 312 313 315 316 316 316 317 317 317 318 318 318 318 317 316 313 312 312 312 310 309 309 307 307 310 313 313 314 315 314 313 313 312
Wind_Speed
17 15 15 13 11 10 10 9 9 9 8 9 10 9 9 9 9 10 11 11 11 11 11 11 11 11 12 13 13 14 14 15 15 15 16 16 15 15 15 14 14 13
17 16 15 14 12 11 10 9 9 9 9 10 11 10 10 10 9 10 11 11 11 11 10 10 10 11 11 12 13 14 14 15 15 14 15 16 15 15 14 14 14 13
16 15 15 14 13 12 11 10 9 9 10 11 11 11 11 10 10 10 10 10 11 11 10 10 10 11 11 11 12 13 13 14 14 14 15 15 14 14 14 14 14 15
15 14 13 12 13 13 12 11 9 9 10 11 12 12 12 11 11 11 10 10 11 11 10 10 10 10 11 11 12 12 12 12 12 13 14 14 14 14 14 14 14 15
14 14 13 12 14 14 12 11 10 10 10 12 12 12 11 12 11 11 11 10 10 11 10 11 11 11 10 11 11 11 11 11 11 12 13 13 13 13 13 13 13 13
14 14 13 13 14 14 13 12 11 10 10 11 12 12 12 12 11 11 11 11 11 11 10 10 10 10 10 10 10 10 10 10 10 10 11 12 12 12 12 12 12 12
16 16 15 15 15 15 14 13 12 11 11 11 12 12 12 12 11 11 11 11 11 11 10 10 9 9 9 8 9 9 9 9 8 9 10 10 10 10 10 11 11 11
18 19 18 16 17 17 16 15 14 13 12 12 12 12 12 11 11 11 11 11 11 11 10 10 9 9 8 8 8 8 8 7 7 8 8 8 8 8 9 9 9 9
19 20 20 18 18 19 18 17 16 15 14 13 12 12 12 11 10 11 11 11 11 10 10 10 9 9 8 8 8 8 7 6 6 6 7 7 6 7 7 7 7 8
18 18 20 19 18 20 19 18 18 18 17 15 12 12 12 11 11 11 11 10 10 10 10 9 9 9 8 8 8 7 7 6 6 5 5 5 4 4 5 6 6 6
18 19 21 21 21 21 21 20 20 19 19 16 13 12 12 12 12 12 11 11 10 10 10 10 9 9 8 8 8 7 7 6 6 5 5 4 3 3 3 4 4 4
21 24 25 24 22 20 19 19 19 18 19 17 14 14 14 12 13 12 12 12 11 10 10 9 9 8 8 8 8 7 7 7 7 6 6 5 4 4 3 3 3 3
20 23 22 20 19 18 18 20 20 18 17 16 14 13 13 12 13 12 12 12 11 10 10 9 9 8 8 9 8 7 7 7 6 6 6 5 5 5 4 4 4 4
16 14 11 10 12 13 11 10 12 13 12 13 13 13 12 12 12 12 12 11 9 8 7 6 6 4 3 4 6 6 7 7 6 6 6 5 4 4 4 4 3 5
13 12 11 11 12 11 7 3 7 8 8 8 8 10 11 12 12 11 11 10 9 7 6 5 4 3 4 4 5 7 8 9 8 6 5 4 5 6 7 7 6 7
13 12 14 13 11 11 11 10 12 12 12 9 5 6 8 10 11 11 10 9 7 5 3 3 3 2 5 6 7 7 7 8 7 7 8 8 9 11 12 10 8 6
11 12 13 12 11 11 12 12 12 13 13 12 8 7 8 8 10 10 8 7 6 4 5 5 4 7 10 10 8 7 8 8 5 5 9 12 12 14 14 12 10 9
9 10 10 9 8 8 8 9 10 10 9 9 9 10 11 10 8 7 6 5 5 6 7 9 11 15 17 17 15 12 12 12 8 6 9 11 11 13 13 9 10 12
8 8 8 8 7 6 6 5 6 7 7 8 10 13 14 13 11 9 7 4 4 6 8 9 12 15 18 19 17 14 15 16 13 11 13 13 11 10 10 9 9 11
8 8 8 8 7 7 7 6 5 6 7 7 10 13 15 15 15 13 10 7 4 5 7 8 10 12 15 16 15 15 16 16 13 12 13 12 9 6 8 10 11 11
8 7 7 7 7 8 8 7 8 9 10 10 12 14 14 15 15 14 13 11 9 8 9 12 14 14 14 14 13 14 13 11 11 11 10 9 7 7 8 9 10 10
9 6 5 5 7 8 9 10 10 9 10 11 11 11 10 11 12 12 13 12 11 12 13 15 16 16 14 13 12 11 10 9 10 9 9 10 10 9 9 10 10 9
12 10 8 6 4 2 3 8 9 7 7 8 9 9 9 10 10 11 12 12 12 14 14 13 14 16 14 12 11 11 10 11 11 9 11 12 11 10 10 13 12 9
13 13 12 10 10 10 8 5 4 4 5 6 6 7 9 11 11 11 11 11 13 14 12 11 13 15 13 12 12 12 12 13 13 12 13 13 14 10 9 12 13 9
12 13 13 13 14 14 13 10 7 4 1 4 5 5 8 10 9 8 9 11 13 13 13 13 12 13 15 15 14 14 13 15 15 15 12 15 17 12 9 10 11 10
11 12 12 12 14 14 13 11 10 10 9 5 4 6 9 10 11 11 11 12 14 17 19 19 15 15 18 17 16 17 16 17 19 16 11 13 17 14 12 10 9 10
Wind_Direction
158 154 153 152 152 154 155 156 158 161 158 148 142 138 133 124 118 115 110 106 104 103 101 99 97 92 90 93 95 97 95 93 92 91 92 91 87 84 79 82 90 89
159 157 156 152 150 153 155 157 161 163 154 148 148 144 136 130 124 118 113 110 108 107 104 102 102 99 96 95 95 97 97 95 94 94 93 91 88 84 79 81 87 87
161 157 154 151 150 151 156 158 161 161 154 152 153 148 143 137 130 124 120 117 114 112 109 105 103 101 97 95 94 94 95 95 95 95 94 93 92 89 85 85 87 88
161 156 148 147 148 150 156 158 159 158 155 157 155 152 150 146 140 134 127 124 119 115 113 110 107 103 101 99 96 94 94 95 96 97 96 94 94 92 90 91 90 89
162 154 144 144 148 153 157 157 159 160 159 163 162 160 159 155 150 142 134 131 127 122 119 117 112 107 105 102 99 97 96 96 98 98 99 98 96 93 90 91 90 90
162 150 146 152 154 157 159 158 163 167 167 169 168 167 167 163 157 151 145 140 135 131 126 122 119 114 112 108 104 104 101 102 103 99 99 100 98 95 91 90 88 87
162 153 154 162 163 163 163 162 165 170 174 175 172 174 173 169 167 161 156 150 145 142 137 133 130 124 119 115 113 115 109 105 104 102 104 104 101 100 99 97 96 93
169 165 162 166 170 168 164 166 169 171 176 177 176 179 176 175 177 172 166 161 154 150 147 144 140 133 130 129 124 121 115 110 110 110 111 109 105 110 109 104 104 105
175 174 169 167 174 173 168 172 175 175 177 176 177 182 179 181 186 180 175 170 162 160 156 153 151 145 143 144 138 131 125 121 119 120 121 117 115 124 119 111 111 111
172 175 173 171 177 178 176 178 180 181 179 173 176 184 183 185 190 186 184 180 173 170 166 163 164 159 156 157 151 147 146 143 140 137 136 133 132 134 127 125 128 124
171 176 181 181 180 182 183 182 181 183 178 171 175 185 188 190 191 190 192 189 184 180 176 174 173 169 169 173 168 165 166 162 162 165 163 166 165 150 139 142 145 143
174 183 188 186 183 184 184 180 177 179 177 177 181 187 192 193 190 193 197 194 192 190 186 183 184 186 184 184 182 181 183 181 181 183 179 184 193 185 183 184 180 181
187 195 192 187 186 186 183 178 177 179 180 184 187 189 194 193 191 199 203 198 197 197 194 189 192 200 204 201 196 188 193 196 195 197 195 197 203 199 208 217 204 208
185 193 189 187 191 190 184 168 167 176 184 190 193 191 194 195 196 205 208 205 209 212 218 221 208 218 290 260 224 212 211 209 206 215 219 221 232 234 246 264 286 304
173 181 185 184 180 187 202 153 143 168 182 188 197 198 199 202 208 214 213 213 219 220 237 260 248 258 309 283 238 231 224 217 221 239 264 303 300 275 264 260 270 297
168 181 188 182 170 182 198 181 170 182 186 181 191 200 197 202 211 220 221 219 216 202 219 283 324 284 251 232 231 238 232 234 250 256 261 277 276 263 262 259 248 253
172 178 181 181 177 182 185 177 181 194 196 194 201 211 210 211 213 218 223 223 214 197 212 227 226 233 236 234 239 245 244 252 263 241 242 253 258 258 264 265 248 236
176 175 171 165 166 173 174 180 192 199 203 209 218 226 231 231 227 223 225 227 231 238 241 229 219 225 235 243 250 254 257 260 259 256 259 262 266 266 263 254 235 225
149 152 153 145 147 156 160 178 198 202 212 222 228 235 238 234 228 224 216 209 224 235 234 228 225 227 234 244 251 253 259 264 264 264 264 262 270 270 248 224 216 216
112 120 136 146 157 158 153 162 181 197 210 214 217 225 230 228 226 225 221 215 219 217 208 215 230 234 234 241 248 251 259 264 256 249 253 256 260 245 216 205 201 203
90 108 131 145 158 162 163 168 178 187 191 194 203 211 217 221 225 228 229 227 226 227 228 232 238 239 236 239 245 248 252 247 229 223 230 235 221 195 193 193 191 198
52 73 94 111 137 157 171 175 179 187 187 192 204 208 210 217 223 229 235 234 228 224 227 232 236 237 238 240 240 233 220 207 200 201 214 220 208 194 191 188 188 187
24 30 36 40 54 76 151 162 167 181 189 201 214 211 205 212 219 224 228 231 233 232 231 233 239 240 235 227 218 206 197 191 187 202 224 215 193 181 173 170 169 157
16 16 18 17 15 14 22 55 105 159 182 199 215 214 213 220 230 236 234 234 239 240 237 235 237 232 220 208 202 198 196 193 198 222 226 188 165 169 172 168 168 157
15 16 14 9 6 9 13 11 2 345 260 197 194 209 223 226 231 240 239 234 233 225 212 210 216 211 202 200 201 201 202 201 211 236 228 175 159 169 176 173 180 180
10 12 11 5 359 359 0 354 344 335 325 293 229 225 229 219 209 206 206 207 213 211 202 200 204 204 202 205 208 208 210 211 218 238 237 178 161 162 167 170 176 180